• în Republica Moldova
  • Lista ţărilor
  • Pe 7 zile
  • Temperatura apei
  • Hartă satelitară
  • Meteo pe hartă
  • Widget-uri
  • user-avatar
    Intrare

    Meteo pe oră la Shmygalovka

    Astăzi, 22 Octombrie, Luni

    Timp Temperatura Precipitaţii Vânt Presiune Umiditate
    00:00 +3°C° 0 mm 2 m/s 752 mmHg 84%
    01:00 +4°C° 0 mm 1 m/s 752 mmHg 85%
    02:00 +3°C° 0 mm 1 m/s 752 mmHg 86%
    03:00 +3°C° 0 mm 1 m/s 751 mmHg 87%
    04:00 +3°C° 0 mm 1 m/s 751 mmHg 88%
    05:00 +3°C° 0 mm 1 m/s 751 mmHg 89%
    06:00 +3°C° 0 mm 1 m/s 751 mmHg 86%
    07:00 +4°C° 0 mm 1 m/s 751 mmHg 83%
    08:00 +4°C° 0 mm 0 m/s 751 mmHg 80%
    09:00 +5°C° 0 mm 0 m/s 751 mmHg 75%
    10:00 +7°C° 0 mm 1 m/s 750 mmHg 69%
    11:00 +8°C° 0 mm 1 m/s 750 mmHg 64%
    12:00 +9°C° 0 mm 1 m/s 749 mmHg 62%
    13:00 +9°C° 0 mm 1 m/s 749 mmHg 60%
    14:00 +9°C° 0 mm 2 m/s 748 mmHg 57%
    15:00 +8°C° 0 mm 2 m/s 748 mmHg 62%
    16:00 +8°C° 0 mm 1 m/s 747 mmHg 67%
    17:00 +7°C° 0 mm 1 m/s 747 mmHg 71%
    18:00 +5°C° 0 mm 2 m/s 746 mmHg 73%
    19:00 +5°C° 0 mm 2 m/s 746 mmHg 75%
    20:00 +4°C° 0 mm 2 m/s 745 mmHg 76%
    21:00 +4°C° 0 mm 2 m/s 745 mmHg 77%
    22:00 +4°C° 0 mm 2 m/s 744 mmHg 79%
    23:00 +3°C° 0 mm 2 m/s 744 mmHg 80%

    Mâine, 23 Octombrie, Marţi

    Timp Temperatura Precipitaţii Vânt Presiune Umiditate
    00:00 +3°C° 0 mm 2 m/s 743 mmHg 80%
    01:00 +3°C° 0 mm 2 m/s 743 mmHg 81%
    02:00 +3°C° 0 mm 2 m/s 742 mmHg 82%
    03:00 +1°C° 0 mm 3 m/s 741 mmHg 83%
    04:00 +1°C° 0 mm 3 m/s 741 mmHg 84%
    05:00 +1°C° 0 mm 3 m/s 740 mmHg 85%
    06:00 +2°C° 0 mm 3 m/s 740 mmHg 83%
    07:00 +1°C° 0 mm 4 m/s 739 mmHg 82%
    08:00 +3°C° 0 mm 4 m/s 739 mmHg 80%
    09:00 +4°C° 0 mm 4 m/s 739 mmHg 78%
    10:00 +5°C° 0 mm 4 m/s 738 mmHg 75%
    11:00 +6°C° 0 mm 4 m/s 738 mmHg 73%
    12:00 +6°C° 0.1 mm 4 m/s 737 mmHg 74%
    13:00 +6°C° 0.1 mm 4 m/s 737 mmHg 75%
    14:00 +6°C° 0.1 mm 4 m/s 736 mmHg 76%
    15:00 +5°C° 0.1 mm 3 m/s 736 mmHg 79%
    16:00 +5°C° 0.1 mm 3 m/s 735 mmHg 82%
    17:00 +5°C° 0.1 mm 3 m/s 735 mmHg 85%
    18:00 +4°C° 0.1 mm 3 m/s 734 mmHg 87%
    19:00 +5°C° 0.1 mm 2 m/s 734 mmHg 88%
    20:00 +5°C° 0.1 mm 2 m/s 733 mmHg 89%
    21:00 +4°C° 0.1 mm 3 m/s 733 mmHg 90%
    22:00 +4°C° 0.1 mm 3 m/s 732 mmHg 90%
    23:00 +4°C° 0.1 mm 3 m/s 731 mmHg 91%

    Poimâine, 24 Octombrie, Miercuri

    Timp Temperatura Precipitaţii Vânt Presiune Umiditate
    00:00 +3°C° 0.1 mm 3 m/s 731 mmHg 91%
    01:00 +3°C° 0.1 mm 3 m/s 730 mmHg 90%
    02:00 +3°C° 0.1 mm 3 m/s 729 mmHg 90%
    03:00 +3°C° 0.2 mm 3 m/s 729 mmHg 89%
    04:00 +3°C° 0.2 mm 3 m/s 728 mmHg 87%
    05:00 +3°C° 0.2 mm 3 m/s 727 mmHg 86%
    06:00 +3°C° 0 mm 4 m/s 727 mmHg 83%
    07:00 +3°C° 0 mm 4 m/s 726 mmHg 81%
    08:00 +2°C° 0 mm 5 m/s 726 mmHg 79%
    09:00 +3°C° 0.2 mm 5 m/s 725 mmHg 77%
    10:00 +4°C° 0.2 mm 6 m/s 725 mmHg 75%
    11:00 +4°C° 0.2 mm 6 m/s 725 mmHg 73%
    12:00 +4°C° 0.4 mm 6 m/s 724 mmHg 76%
    13:00 +5°C° 0.4 mm 6 m/s 724 mmHg 78%
    14:00 +5°C° 0.4 mm 6 m/s 723 mmHg 80%
    15:00 +6°C° 0.1 mm 5 m/s 723 mmHg 82%
    16:00 +6°C° 0.1 mm 5 m/s 723 mmHg 85%
    17:00 +6°C° 0.1 mm 4 m/s 723 mmHg 87%
    18:00 +6°C° 0.2 mm 4 m/s 723 mmHg 89%
    19:00 +7°C° 0.2 mm 3 m/s 723 mmHg 91%
    20:00 +5°C° 0.2 mm 3 m/s 723 mmHg 94%
    21:00 +5°C° 0.1 mm 3 m/s 723 mmHg 94%
    22:00 +5°C° 0.1 mm 3 m/s 723 mmHg 95%
    23:00 +5°C° 0.1 mm 3 m/s 723 mmHg 95%

    25 Octombrie, Joi

    Timp Temperatura Precipitaţii Vânt Presiune Umiditate
    00:00 +5°C° 0.2 mm 3 m/s 723 mmHg 95%
    01:00 +5°C° 0.2 mm 3 m/s 723 mmHg 96%
    02:00 +5°C° 0.2 mm 3 m/s 723 mmHg 96%
    03:00 +5°C° 0.5 mm 3 m/s 723 mmHg 96%
    04:00 +5°C° 0.5 mm 3 m/s 722 mmHg 96%
    05:00 +5°C° 0.5 mm 3 m/s 722 mmHg 96%
    06:00 +5°C° 0.6 mm 4 m/s 721 mmHg 95%
    07:00 +6°C° 0.6 mm 5 m/s 720 mmHg 94%
    08:00 +5°C° 0.6 mm 6 m/s 719 mmHg 93%
    09:00 +5°C° 2.9 mm 6 m/s 718 mmHg 92%
    10:00 +5°C° 2.9 mm 6 m/s 718 mmHg 92%
    11:00 +5°C° 2.9 mm 6 m/s 717 mmHg 91%
    12:00 +6°C° 0.7 mm 5 m/s 717 mmHg 87%
    13:00 +6°C° 0.7 mm 5 m/s 717 mmHg 83%
    14:00 +6°C° 0.7 mm 5 m/s 716 mmHg 80%
    15:00 +5°C° 0.5 mm 5 m/s 717 mmHg 82%
    16:00 +4°C° 0.5 mm 6 m/s 717 mmHg 83%
    17:00 +3°C° 0.5 mm 7 m/s 717 mmHg 85%
    18:00 +2°C° 0.7 mm 8 m/s 718 mmHg 84%
    19:00 +2°C° 0.7 mm 9 m/s 719 mmHg 83%
    20:00 +1°C° 0.7 mm 10 m/s 720 mmHg 81%
    21:00 +1°C° 0.3 mm 9 m/s 721 mmHg 81%
    22:00 +1°C° 0.3 mm 9 m/s 722 mmHg 80%
    23:00 0°C° 0.3 mm 9 m/s 724 mmHg 79%

    26 Octombrie, Vineri

    Timp Temperatura Precipitaţii Vânt Presiune Umiditate
    00:00 0°C° 0 mm 8 m/s 725 mmHg 79%
    01:00 -1°C° 0 mm 8 m/s 726 mmHg 79%
    02:00 -1°C° 0 mm 7 m/s 727 mmHg 79%
    03:00 -2°C° 0 mm 7 m/s 728 mmHg 82%
    04:00 -2°C° 0 mm 6 m/s 728 mmHg 84%
    05:00 -2°C° 0 mm 6 m/s 729 mmHg 87%
    06:00 -2°C° 0 mm 6 m/s 730 mmHg 85%
    07:00 -1°C° 0 mm 6 m/s 730 mmHg 83%
    08:00 +1°C° 0 mm 6 m/s 731 mmHg 81%
    09:00 +1°C° 0 mm 6 m/s 731 mmHg 79%
    10:00 +1°C° 0 mm 6 m/s 732 mmHg 77%
    11:00 +2°C° 0 mm 6 m/s 733 mmHg 75%
    12:00 +2°C° 0 mm 5 m/s 733 mmHg 76%
    13:00 +2°C° 0 mm 5 m/s 734 mmHg 76%
    14:00 +2°C° 0 mm 5 m/s 734 mmHg 76%
    15:00 +2°C° 0 mm 5 m/s 735 mmHg 78%
    16:00 +1°C° 0 mm 4 m/s 735 mmHg 80%
    17:00 +1°C° 0 mm 4 m/s 736 mmHg 82%
    18:00 +1°C° 0 mm 4 m/s 736 mmHg 83%
    19:00 +2°C° 0 mm 3 m/s 737 mmHg 83%
    20:00 +2°C° 0 mm 3 m/s 737 mmHg 83%
    21:00 +2°C° 0 mm 3 m/s 737 mmHg 84%
    22:00 +2°C° 0 mm 3 m/s 738 mmHg 85%
    23:00 +3°C° 0 mm 3 m/s 738 mmHg 85%

    27 Octombrie, Sâmbătă

    Timp Temperatura Precipitaţii Vânt Presiune Umiditate
    00:00 +1°C° 0 mm 4 m/s 738 mmHg 88%
    01:00 +1°C° 0 mm 4 m/s 739 mmHg 90%
    02:00 +1°C° 0 mm 4 m/s 739 mmHg 92%
    03:00 +1°C° 0 mm 5 m/s 739 mmHg 91%
    04:00 +1°C° 0 mm 5 m/s 739 mmHg 90%
    05:00 +1°C° 0 mm 6 m/s 738 mmHg 89%
    06:00 +2°C° 0.1 mm 6 m/s 738 mmHg 89%
    07:00 +3°C° 0.1 mm 7 m/s 738 mmHg 88%
    08:00 +3°C° 0.1 mm 7 m/s 738 mmHg 88%
    09:00 +4°C° 0 mm 7 m/s 739 mmHg 86%
    10:00 +5°C° 0 mm 7 m/s 739 mmHg 84%
    11:00 +6°C° 0 mm 8 m/s 739 mmHg 83%
    12:00 +6°C° 0.1 mm 7 m/s 739 mmHg 81%
    13:00 +8°C° 0.1 mm 7 m/s 739 mmHg 80%
    14:00 +8°C° 0.1 mm 7 m/s 739 mmHg 79%
    15:00 +8°C° 0 mm 6 m/s 739 mmHg 81%
    16:00 +8°C° 0 mm 5 m/s 739 mmHg 83%
    17:00 +7°C° 0 mm 5 m/s 739 mmHg 86%
    18:00 +7°C° 0 mm 5 m/s 740 mmHg 85%
    19:00 +7°C° 0 mm 5 m/s 740 mmHg 85%
    20:00 +7°C° 0 mm 4 m/s 740 mmHg 85%
    21:00 +7°C° 0 mm 4 m/s 740 mmHg 87%
    22:00 +6°C° 0 mm 4 m/s 740 mmHg 88%
    23:00 +7°C° 0 mm 3 m/s 740 mmHg 90%

    28 Octombrie, Duminică

    Timp Temperatura Precipitaţii Vânt Presiune Umiditate
    00:00 +7°C° 0.2 mm 3 m/s 740 mmHg 90%
    01:00 +6°C° 0.2 mm 4 m/s 740 mmHg 90%
    02:00 +6°C° 0.2 mm 4 m/s 740 mmHg 90%
    03:00 +7°C° 0.4 mm 4 m/s 740 mmHg 90%
    04:00 +7°C° 0.4 mm 5 m/s 739 mmHg 90%
    05:00 +7°C° 0.4 mm 6 m/s 739 mmHg 90%
    06:00 +8°C° 0 mm 6 m/s 739 mmHg 87%
    07:00 +8°C° 0 mm 7 m/s 739 mmHg 85%
    08:00 +9°C° 0 mm 7 m/s 739 mmHg 82%
    09:00 +10°C° 0 mm 7 m/s 739 mmHg 81%
    10:00 +11°C° 0 mm 8 m/s 739 mmHg 79%
    11:00 +11°C° 0 mm 8 m/s 739 mmHg 77%
    12:00 +12°C° 0 mm 8 m/s 739 mmHg 77%
    13:00 +12°C° 0 mm 7 m/s 739 mmHg 76%
    14:00 +12°C° 0 mm 7 m/s 739 mmHg 76%
    15:00 +12°C° 0.1 mm 7 m/s 739 mmHg 78%
    16:00 +13°C° 0.1 mm 6 m/s 740 mmHg 81%
    17:00 +11°C° 0.1 mm 6 m/s 740 mmHg 84%
    18:00 +11°C° 0 mm 6 m/s 740 mmHg 83%
    19:00 +11°C° 0 mm 6 m/s 740 mmHg 83%
    20:00 +11°C° 0 mm 6 m/s 740 mmHg 83%
    21:00 +11°C° 0 mm 6 m/s 740 mmHg 84%
    22:00 +11°C° 0 mm 6 m/s 740 mmHg 85%
    23:00 +11°C° 0 mm 6 m/s 740 mmHg 86%
    Arată mai mult